Location: Gandikunta
(16.3784°N, 80.8378°E)
Time: 06:53:03
(UTC+00:00)

SL-08 RB Rocket - Pass Details

Date: 19 May 2025
Orbit: 634 x 669 km, 97.8° (Epoch: 18 June)

Event Time Altitude Azimuth Distance (km) Brightness Sun altitude
Rises 22:47:15 0° 14° (NNE) 2,937 7.7 -17.8°
Reaches altitude 10° 22:49:26 10° 15° (NNE) 2,032 6.8 -17.3°
Maximum altitude 22:53:52 76° 101° (E) 668 3.8 -16.4°
Drops below altitude 10° 22:58:20 10° 187° (S) 2,050 5.9 -15.4°
Enters shadow 22:58:44 - 188° (S) 2,214 6.1 -15.4°
